RYR45C EINN-EGCC

Flight info

Callsign RYR45C
Flight time 0h 47m
Altitude 31000
Route AGINI3A AGINI DCT BOFUM Q37 MALUD
Aircraft B738/M-SDE2E3FGHIRWXY/LB1

Departure

Time 2026-04-30 21:44
Airport Shannon Airport (EINN)

Arrival

Time 2026-04-30 22:32
Airport Manchester Airport (EGCC)
Time Latitude Longitude Altitude Speed Heading
2026-04-30 21:28 52.69265 -8.91783 40 ft 0 kts 94°
2026-04-30 21:40 52.69265 -8.91767 40 ft 6 kts 88°
2026-04-30 21:40 52.69291 -8.91691 40 ft 9 kts 45°
2026-04-30 21:40 52.69357 -8.91658 39 ft 15 kts 332°
2026-04-30 21:41 52.69420 -8.91811 39 ft 16 kts 298°
2026-04-30 21:41 52.69455 -8.91986 40 ft 16 kts 282°
2026-04-30 21:41 52.69482 -8.92158 41 ft 15 kts 288°
2026-04-30 21:41 52.69523 -8.92315 41 ft 15 kts 302°
2026-04-30 21:42 52.69631 -8.92507 42 ft 31 kts 315°
2026-04-30 21:42 52.69686 -8.92594 42 ft 8 kts 315°
2026-04-30 21:42 52.69727 -8.92662 42 ft 10 kts 315°
2026-04-30 21:42 52.69811 -8.92800 42 ft 21 kts 315°
2026-04-30 21:43 52.69898 -8.92966 41 ft 15 kts 300°
2026-04-30 21:43 52.69955 -8.93018 41 ft 9 kts 26°
2026-04-30 21:43 52.70102 -8.92709 37 ft 78 kts 51°
2026-04-30 21:43 52.70624 -8.91596 30 ft 165 kts 54°
2026-04-30 21:44 52.71442 -8.89899 546 ft 202 kts 51°
2026-04-30 21:44 52.72427 -8.88104 1418 ft 222 kts 39°
2026-04-30 21:44 52.73835 -8.86988 2272 ft 237 kts 24°
2026-04-30 21:44 52.75482 -8.85964 2629 ft 264 kts 23°
2026-04-30 21:45 52.77224 -8.84888 3514 ft 270 kts 23°
2026-04-30 21:45 52.78987 -8.83767 4455 ft 273 kts 24°
2026-04-30 21:45 52.80767 -8.82597 5332 ft 279 kts 24°
2026-04-30 21:45 52.82578 -8.81376 6197 ft 283 kts 25°
2026-04-30 21:46 52.84417 -8.80114 7056 ft 288 kts 25°
2026-04-30 21:46 52.86281 -8.78818 7856 ft 293 kts 26°
2026-04-30 21:46 52.88175 -8.77489 8662 ft 298 kts 26°
2026-04-30 21:46 52.90102 -8.76129 9495 ft 304 kts 27°
2026-04-30 21:47 52.92059 -8.74743 10291 ft 309 kts 27°
2026-04-30 21:47 52.94098 -8.73289 10642 ft 331 kts 27°
2026-04-30 21:47 52.96295 -8.71717 10833 ft 356 kts 27°
2026-04-30 21:47 52.98643 -8.70040 11133 ft 375 kts 26°
2026-04-30 21:48 53.01067 -8.68313 11764 ft 382 kts 26°
2026-04-30 21:48 53.03519 -8.66566 12517 ft 386 kts 26°
2026-04-30 21:48 53.05967 -8.64818 13258 ft 390 kts 27°
2026-04-30 21:48 53.08479 -8.63019 13965 ft 396 kts 27°
2026-04-30 21:49 53.11022 -8.61193 14597 ft 400 kts 27°
2026-04-30 21:49 53.13478 -8.59047 15230 ft 397 kts 42°
2026-04-30 21:49 53.15344 -8.55753 15896 ft 388 kts 62°
2026-04-30 21:49 53.16510 -8.51781 16591 ft 378 kts 79°
2026-04-30 21:50 53.17164 -8.47540 17246 ft 379 kts 83°
2026-04-30 21:50 53.17738 -8.43235 17873 ft 383 kts 84°
2026-04-30 21:50 53.18295 -8.38877 18485 ft 386 kts 84°
2026-04-30 21:50 53.18856 -8.34480 19047 ft 389 kts 84°
2026-04-30 21:51 53.19429 -8.30046 19599 ft 393 kts 84°
2026-04-30 21:51 53.20015 -8.25579 20136 ft 396 kts 84°
2026-04-30 21:51 53.20612 -8.21064 20672 ft 400 kts 84°
2026-04-30 21:51 53.21217 -8.16518 21195 ft 403 kts 84°
2026-04-30 21:52 53.21826 -8.11942 21726 ft 406 kts 84°
2026-04-30 21:52 53.22442 -8.07324 22241 ft 409 kts 84°
2026-04-30 21:52 53.23060 -8.02671 22733 ft 412 kts 84°
2026-04-30 21:52 53.23681 -7.97986 23233 ft 415 kts 84°
2026-04-30 21:53 53.24306 -7.93260 23713 ft 418 kts 84°
2026-04-30 21:53 53.24933 -7.88502 24110 ft 421 kts 84°
2026-04-30 21:53 53.25562 -7.83708 24480 ft 424 kts 84°
2026-04-30 21:53 53.26193 -7.78882 24858 ft 427 kts 84°
2026-04-30 21:54 53.26828 -7.74011 25228 ft 430 kts 84°
2026-04-30 21:54 53.27465 -7.69109 25597 ft 433 kts 84°
2026-04-30 21:54 53.28102 -7.64184 25960 ft 436 kts 84°
2026-04-30 21:54 53.28743 -7.59217 26297 ft 438 kts 84°
2026-04-30 21:55 53.29386 -7.54216 26644 ft 441 kts 84°
2026-04-30 21:55 53.30030 -7.49187 26981 ft 444 kts 84°
2026-04-30 21:55 53.30676 -7.44126 27306 ft 447 kts 84°
2026-04-30 21:55 53.31324 -7.39032 27615 ft 449 kts 84°
2026-04-30 21:56 53.31972 -7.33910 27940 ft 452 kts 84°
2026-04-30 21:56 53.32624 -7.28747 28265 ft 454 kts 84°
2026-04-30 21:56 53.33275 -7.23575 28673 ft 454 kts 84°
2026-04-30 21:56 53.33923 -7.18416 29169 ft 452 kts 84°
2026-04-30 21:57 53.34566 -7.13278 29647 ft 451 kts 84°
2026-04-30 21:57 53.35207 -7.08129 30048 ft 451 kts 84°
2026-04-30 21:57 53.35835 -7.03055 30387 ft 452 kts 84°
2026-04-30 21:57 53.36470 -6.97906 30753 ft 451 kts 83°
2026-04-30 21:58 53.37103 -6.92766 31086 ft 451 kts 83°
2026-04-30 21:58 53.37735 -6.87590 31083 ft 455 kts 83°
2026-04-30 21:58 53.39000 -6.77201 31093 ft 451 kts 83°
2026-04-30 21:59 53.40240 -6.66958 31099 ft 449 kts 84°
2026-04-30 22:00 53.42083 -6.51538 31104 ft 450 kts 84°
2026-04-30 22:00 53.43911 -6.36077 31102 ft 451 kts 84°
2026-04-30 22:01 53.45122 -6.25744 31105 ft 451 kts 84°
2026-04-30 22:01 53.46317 -6.15458 31098 ft 451 kts 84°
2026-04-30 22:02 53.47508 -6.05127 31099 ft 450 kts 84°
2026-04-30 22:02 53.48687 -5.94816 31112 ft 450 kts 84°
2026-04-30 22:03 53.49854 -5.84529 31067 ft 444 kts 84°
2026-04-30 22:03 53.50426 -5.79483 30610 ft 437 kts 84°
2026-04-30 22:03 53.50989 -5.74464 29849 ft 439 kts 84°
2026-04-30 22:04 53.51552 -5.69398 28893 ft 443 kts 84°
2026-04-30 22:04 53.52121 -5.64278 27866 ft 448 kts 84°
2026-04-30 22:04 53.53271 -5.53894 25893 ft 455 kts 84°
2026-04-30 22:05 53.53698 -5.48644 25074 ft 450 kts 91°
2026-04-30 22:05 53.53661 -5.43447 24494 ft 440 kts 97°
2026-04-30 22:05 53.53505 -5.38345 23933 ft 434 kts 97°
2026-04-30 22:05 53.53347 -5.33304 23243 ft 430 kts 97°
2026-04-30 22:06 53.53205 -5.28306 22506 ft 427 kts 97°
2026-04-30 22:06 53.52961 -5.18424 21153 ft 419 kts 97°
2026-04-30 22:06 53.52838 -5.13552 20511 ft 415 kts 97°
2026-04-30 22:07 53.52691 -5.08797 19893 ft 411 kts 98°
2026-04-30 22:07 53.52532 -5.04032 19274 ft 407 kts 98°
2026-04-30 22:07 53.52371 -4.99288 18665 ft 404 kts 98°
2026-04-30 22:07 53.52214 -4.94596 18021 ft 401 kts 98°
2026-04-30 22:08 53.52058 -4.89938 17421 ft 396 kts 98°
2026-04-30 22:08 53.51900 -4.85297 17236 ft 400 kts 98°
2026-04-30 22:08 53.51742 -4.80652 17144 ft 397 kts 98°
2026-04-30 22:08 53.51586 -4.76039 17131 ft 394 kts 98°
2026-04-30 22:09 53.51429 -4.71436 17131 ft 395 kts 98°
2026-04-30 22:09 53.51323 -4.68387 17126 ft 395 kts 98°
2026-04-30 22:09 53.51162 -4.63770 17130 ft 395 kts 98°
2026-04-30 22:09 53.51000 -4.59173 17123 ft 394 kts 98°
2026-04-30 22:10 53.50836 -4.54573 17126 ft 394 kts 98°
2026-04-30 22:10 53.50671 -4.49992 17132 ft 393 kts 98°
2026-04-30 22:10 53.50504 -4.45391 17131 ft 393 kts 98°
2026-04-30 22:10 53.50335 -4.40800 17132 ft 393 kts 98°
2026-04-30 22:11 53.49993 -4.31644 17133 ft 393 kts 98°
2026-04-30 22:11 53.49821 -4.27118 17137 ft 393 kts 98°
2026-04-30 22:11 53.49646 -4.22548 17135 ft 393 kts 98°
2026-04-30 22:12 53.49469 -4.17980 17137 ft 391 kts 99°
2026-04-30 22:12 53.49298 -4.13508 17127 ft 375 kts 99°
2026-04-30 22:12 53.49134 -4.09225 17128 ft 359 kts 99°
2026-04-30 22:12 53.48972 -4.05126 17128 ft 347 kts 99°
2026-04-30 22:13 53.48807 -4.01079 17144 ft 347 kts 99°
2026-04-30 22:13 53.48602 -3.97055 17147 ft 344 kts 104°
2026-04-30 22:13 53.48063 -3.93187 17150 ft 338 kts 113°
2026-04-30 22:13 53.47295 -3.89468 17156 ft 337 kts 114°
2026-04-30 22:14 53.46510 -3.85766 17153 ft 337 kts 114°
2026-04-30 22:14 53.45726 -3.82059 17163 ft 337 kts 114°
2026-04-30 22:14 53.44949 -3.78351 17161 ft 337 kts 114°
2026-04-30 22:14 53.44176 -3.74640 17164 ft 337 kts 114°
2026-04-30 22:15 53.43404 -3.70922 17155 ft 338 kts 114°
2026-04-30 22:15 53.42632 -3.67202 17161 ft 338 kts 114°
2026-04-30 22:15 53.41858 -3.63486 17161 ft 338 kts 114°
2026-04-30 22:15 53.41198 -3.59696 17143 ft 343 kts 103°
2026-04-30 22:16 53.40981 -3.55701 17175 ft 345 kts 99°
2026-04-30 22:16 53.40833 -3.51676 17161 ft 343 kts 98°
2026-04-30 22:17 53.40406 -3.40292 16922 ft 309 kts 99°
2026-04-30 22:17 53.40255 -3.36737 16682 ft 304 kts 100°
2026-04-30 22:17 53.39938 -3.29688 15927 ft 303 kts 100°
2026-04-30 22:18 53.39779 -3.26168 15586 ft 302 kts 99°
2026-04-30 22:18 53.39459 -3.19181 14918 ft 299 kts 99°
2026-04-30 22:19 53.39647 -3.12227 14171 ft 312 kts 73°
2026-04-30 22:19 53.40657 -3.08946 13692 ft 319 kts 65°
2026-04-30 22:19 53.42954 -3.02467 12665 ft 326 kts 63°
2026-04-30 22:20 53.44117 -2.99191 12161 ft 328 kts 63°
2026-04-30 22:20 53.46439 -2.92555 11172 ft 331 kts 63°
2026-04-30 22:20 53.47596 -2.89214 10681 ft 332 kts 63°
2026-04-30 22:21 53.48739 -2.85900 10217 ft 332 kts 63°
2026-04-30 22:21 53.49897 -2.82539 9708 ft 332 kts 63°
2026-04-30 22:21 53.50843 -2.78990 9156 ft 328 kts 80°
2026-04-30 22:21 53.50917 -2.75279 8624 ft 321 kts 101°
2026-04-30 22:22 53.50149 -2.71722 7602 ft 331 kts 123°
2026-04-30 22:22 53.48589 -2.68870 6638 ft 333 kts 143°
2026-04-30 22:22 53.46532 -2.67136 5640 ft 332 kts 160°
2026-04-30 22:22 53.44342 -2.65961 4627 ft 329 kts 162°
2026-04-30 22:23 53.42162 -2.64836 3638 ft 327 kts 162°
2026-04-30 22:23 53.40048 -2.63742 3286 ft 306 kts 161°
2026-04-30 22:23 53.38125 -2.62739 3156 ft 267 kts 161°
2026-04-30 22:23 53.36495 -2.61881 3013 ft 226 kts 160°
2026-04-30 22:24 53.35118 -2.61153 2962 ft 189 kts 160°
2026-04-30 22:24 53.33949 -2.60531 2948 ft 165 kts 160°
2026-04-30 22:24 53.32868 -2.59953 2953 ft 162 kts 159°
2026-04-30 22:24 53.31786 -2.59372 2973 ft 164 kts 159°
2026-04-30 22:25 53.30697 -2.58788 2972 ft 164 kts 160°
2026-04-30 22:25 53.29611 -2.58207 2974 ft 164 kts 159°
2026-04-30 22:25 53.28523 -2.57627 2976 ft 164 kts 160°
2026-04-30 22:25 53.27431 -2.57044 2972 ft 165 kts 160°
2026-04-30 22:26 53.25250 -2.55882 2973 ft 164 kts 160°
2026-04-30 22:26 53.24202 -2.55171 2958 ft 162 kts 140°
2026-04-30 22:26 53.23753 -2.53508 2993 ft 169 kts 91°
2026-04-30 22:27 53.24155 -2.51600 3003 ft 178 kts 76°
2026-04-30 22:27 53.24612 -2.49655 2917 ft 184 kts 70°
2026-04-30 22:27 53.25946 -2.46199 2446 ft 166 kts 62°
2026-04-30 22:28 53.27317 -2.43289 2040 ft 152 kts 62°
2026-04-30 22:28 53.27932 -2.42017 1868 ft 136 kts 64°
2026-04-30 22:29 53.29649 -2.38434 1294 ft 132 kts 60°
2026-04-30 22:29 53.30218 -2.37254 1129 ft 130 kts 59°
2026-04-30 22:30 53.32516 -2.32480 451 ft 137 kts 51°
2026-04-30 22:31 53.34089 -2.29238 216 ft 56 kts 51°
2026-04-30 22:32 53.34533 -2.28521 224 ft 12 kts 21°
2026-04-30 22:32 53.34615 -2.28467 227 ft 6 kts 22°
2026-04-30 22:33 53.34738 -2.28347 228 ft 15 kts 51°
2026-04-30 22:33 53.34882 -2.28046 233 ft 16 kts 51°
2026-04-30 22:34 53.35157 -2.28200 232 ft 16 kts 353°
2026-04-30 22:35 53.35349 -2.28092 239 ft 15 kts 44°
2026-04-30 22:36 53.35578 -2.27554 254 ft 14 kts 49°
2026-04-30 22:36 53.35638 -2.27424 253 ft 14 kts 54°
2026-04-30 22:37 53.35809 -2.27054 254 ft 13 kts 57°
2026-04-30 22:37 53.35855 -2.26929 254 ft 12 kts 54°
2026-04-30 22:37 53.35990 -2.26894 254 ft 9 kts 314°
2026-04-30 22:38 53.36004 -2.26919 254 ft 0 kts 313°
2026-04-30 22:38 53.36010 -2.26930 254 ft 1 kts 314°
2026-04-30 22:39 53.36011 -2.26932 254 ft 0 kts 314°
2026-04-30 22:39 53.36013 -2.26935 254 ft 0 kts 314°